• In Russia
  • List of Countries
  • For 7 days
  • Water Temperature
  • Satellite Maps
  • Weather Map
  • Weather Widgets
  • user-avatar
    Login

    Hourly Weather Pilis

    Today, 18 October, Wednesday

    Time Temperature Precipitation Wind Pressure Humidity
    00:00 +16°C° 0 mm 1 mps 754 mmHg 66%
    01:00 +16°C° 0 mm 1 mps 754 mmHg 67%
    02:00 +16°C° 0 mm 1 mps 753 mmHg 69%
    03:00 +15°C° 0 mm 1 mps 753 mmHg 70%
    04:00 +15°C° 0 mm 1 mps 752 mmHg 72%
    05:00 +15°C° 0 mm 1 mps 752 mmHg 72%
    06:00 +15°C° 0 mm 2 mps 752 mmHg 72%
    07:00 +15°C° 0 mm 2 mps 752 mmHg 72%
    08:00 +17°C° 0 mm 2 mps 752 mmHg 65%
    09:00 +18°C° 0 mm 2 mps 752 mmHg 58%
    10:00 +20°C° 0 mm 2 mps 752 mmHg 51%
    11:00 +21°C° 0 mm 2 mps 751 mmHg 47%
    12:00 +24°C° 0 mm 2 mps 751 mmHg 44%
    13:00 +25°C° 0 mm 2 mps 751 mmHg 41%
    14:00 +25°C° 0 mm 2 mps 750 mmHg 42%
    15:00 +24°C° 0 mm 2 mps 750 mmHg 43%
    16:00 +24°C° 0 mm 1 mps 749 mmHg 45%
    17:00 +23°C° 0 mm 1 mps 749 mmHg 48%
    18:00 +21°C° 0 mm 1 mps 749 mmHg 51%
    19:00 +19°C° 0 mm 2 mps 749 mmHg 54%
    20:00 +19°C° 0 mm 1 mps 749 mmHg 55%
    21:00 +19°C° 0 mm 1 mps 749 mmHg 56%
    22:00 +18°C° 0 mm 1 mps 749 mmHg 58%
    23:00 +18°C° 0 mm 1 mps 749 mmHg 58%

    Tomorrow, 19 October, Thursday

    Time Temperature Precipitation Wind Pressure Humidity
    00:00 +16°C° 0 mm 1 mps 749 mmHg 59%
    01:00 +16°C° 0 mm 1 mps 749 mmHg 59%
    02:00 +15°C° 0 mm 2 mps 749 mmHg 60%
    03:00 +15°C° 0 mm 2 mps 749 mmHg 61%
    04:00 +14°C° 0 mm 2 mps 749 mmHg 62%
    05:00 +14°C° 0 mm 2 mps 749 mmHg 63%
    06:00 +14°C° 0 mm 2 mps 749 mmHg 64%
    07:00 +13°C° 0 mm 2 mps 749 mmHg 64%
    08:00 +15°C° 0 mm 2 mps 749 mmHg 58%
    09:00 +17°C° 0 mm 2 mps 749 mmHg 53%
    10:00 +19°C° 0 mm 2 mps 749 mmHg 47%
    11:00 +20°C° 0 mm 2 mps 749 mmHg 43%
    12:00 +22°C° 0 mm 3 mps 749 mmHg 40%
    13:00 +24°C° 0 mm 3 mps 749 mmHg 37%
    14:00 +23°C° 0 mm 2 mps 749 mmHg 38%
    15:00 +23°C° 0 mm 2 mps 748 mmHg 40%
    16:00 +22°C° 0 mm 1 mps 748 mmHg 42%
    17:00 +21°C° 0 mm 1 mps 748 mmHg 46%
    18:00 +19°C° 0 mm 1 mps 748 mmHg 50%
    19:00 +18°C° 0 mm 1 mps 749 mmHg 53%
    20:00 +16°C° 0 mm 1 mps 749 mmHg 56%
    21:00 +16°C° 0 mm 1 mps 749 mmHg 58%
    22:00 +15°C° 0 mm 1 mps 749 mmHg 60%
    23:00 +15°C° 0 mm 1 mps 749 mmHg 62%

    Day after tomorrow, 20 October, Friday

    Time Temperature Precipitation Wind Pressure Humidity
    00:00 +15°C° 0 mm 1 mps 749 mmHg 65%
    01:00 +14°C° 0 mm 1 mps 749 mmHg 67%
    02:00 +14°C° 0 mm 1 mps 749 mmHg 69%
    03:00 +13°C° 0 mm 1 mps 749 mmHg 70%
    04:00 +13°C° 0 mm 1 mps 749 mmHg 72%
    05:00 +13°C° 0 mm 1 mps 749 mmHg 72%
    06:00 +12°C° 0 mm 0 mps 750 mmHg 72%
    07:00 +12°C° 0 mm 0 mps 750 mmHg 72%
    08:00 +15°C° 0 mm 1 mps 750 mmHg 65%
    09:00 +18°C° 0 mm 1 mps 750 mmHg 58%
    10:00 +20°C° 0 mm 1 mps 751 mmHg 51%
    11:00 +21°C° 0 mm 1 mps 750 mmHg 48%
    12:00 +22°C° 0 mm 1 mps 750 mmHg 44%
    13:00 +23°C° 0 mm 2 mps 750 mmHg 40%
    14:00 +23°C° 0 mm 1 mps 750 mmHg 41%
    15:00 +22°C° 0 mm 1 mps 750 mmHg 42%
    16:00 +22°C° 0 mm 1 mps 750 mmHg 43%
    17:00 +21°C° 0 mm 1 mps 750 mmHg 46%
    18:00 +19°C° 0 mm 1 mps 750 mmHg 49%
    19:00 +18°C° 0 mm 1 mps 751 mmHg 52%
    20:00 +18°C° 0 mm 1 mps 751 mmHg 54%
    21:00 +16°C° 0 mm 1 mps 751 mmHg 56%
    22:00 +16°C° 0 mm 1 mps 751 mmHg 58%
    23:00 +15°C° 0 mm 1 mps 751 mmHg 59%

    21 October, Saturday

    Time Temperature Precipitation Wind Pressure Humidity
    00:00 +15°C° 0 mm 1 mps 751 mmHg 61%
    01:00 +14°C° 0 mm 1 mps 751 mmHg 63%
    02:00 +14°C° 0 mm 1 mps 751 mmHg 64%
    03:00 +14°C° 0 mm 1 mps 751 mmHg 66%
    04:00 +13°C° 0 mm 1 mps 751 mmHg 67%
    05:00 +13°C° 0 mm 1 mps 751 mmHg 68%
    06:00 +13°C° 0 mm 1 mps 751 mmHg 69%
    07:00 +13°C° 0 mm 1 mps 751 mmHg 69%
    08:00 +15°C° 0 mm 1 mps 752 mmHg 64%
    09:00 +18°C° 0 mm 1 mps 752 mmHg 58%
    10:00 +19°C° 0 mm 1 mps 752 mmHg 52%
    11:00 +20°C° 0 mm 1 mps 752 mmHg 50%
    12:00 +21°C° 0 mm 1 mps 751 mmHg 48%
    13:00 +22°C° 0 mm 1 mps 751 mmHg 45%
    14:00 +22°C° 0 mm 1 mps 751 mmHg 47%
    15:00 +21°C° 0 mm 1 mps 751 mmHg 49%
    16:00 +19°C° 0 mm 0 mps 750 mmHg 51%
    17:00 +20°C° 0 mm 1 mps 751 mmHg 54%
    18:00 +19°C° 0 mm 1 mps 751 mmHg 56%
    19:00 +18°C° 0 mm 1 mps 751 mmHg 59%
    20:00 +18°C° 0 mm 1 mps 751 mmHg 61%
    21:00 +16°C° 0 mm 1 mps 751 mmHg 63%
    22:00 +14°C° 0 mm 0 mps 751 mmHg 65%
    23:00 +15°C° 0 mm 1 mps 751 mmHg 66%

    22 October, Sunday

    Time Temperature Precipitation Wind Pressure Humidity
    00:00 +15°C° 0 mm 1 mps 751 mmHg 68%
    01:00 +14°C° 0 mm 1 mps 751 mmHg 69%
    02:00 +14°C° 0 mm 1 mps 751 mmHg 70%
    03:00 +14°C° 0 mm 1 mps 751 mmHg 72%
    04:00 +13°C° 0 mm 1 mps 751 mmHg 73%
    05:00 +13°C° 0 mm 1 mps 750 mmHg 73%
    06:00 +13°C° 0 mm 1 mps 750 mmHg 73%
    07:00 +13°C° 0 mm 1 mps 750 mmHg 73%
    08:00 +15°C° 0 mm 1 mps 750 mmHg 67%
    09:00 +16°C° 0 mm 1 mps 750 mmHg 61%
    10:00 +19°C° 0 mm 1 mps 750 mmHg 54%
    11:00 +20°C° 0 mm 1 mps 750 mmHg 51%
    12:00 +21°C° 0 mm 1 mps 749 mmHg 48%
    13:00 +21°C° 0 mm 2 mps 749 mmHg 45%
    14:00 +21°C° 0 mm 1 mps 748 mmHg 47%
    15:00 +21°C° 0 mm 1 mps 748 mmHg 48%
    16:00 +21°C° 0 mm 1 mps 748 mmHg 50%
    17:00 +20°C° 0 mm 1 mps 747 mmHg 52%
    18:00 +19°C° 0 mm 1 mps 747 mmHg 54%
    19:00 +17°C° 0 mm 2 mps 747 mmHg 56%
    20:00 +17°C° 0 mm 2 mps 747 mmHg 58%
    21:00 +16°C° 0 mm 2 mps 747 mmHg 60%
    22:00 +16°C° 0 mm 3 mps 747 mmHg 62%
    23:00 +16°C° 0.1 mm 3 mps 747 mmHg 64%

    23 October, Monday

    Time Temperature Precipitation Wind Pressure Humidity
    00:00 +14°C° 0.1 mm 3 mps 748 mmHg 66%
    01:00 +14°C° 0.1 mm 3 mps 748 mmHg 69%
    02:00 +14°C° 0.3 mm 3 mps 748 mmHg 71%
    03:00 +14°C° 0.3 mm 4 mps 748 mmHg 73%
    04:00 +13°C° 0.3 mm 4 mps 748 mmHg 75%
    05:00 +13°C° 0.3 mm 4 mps 748 mmHg 76%
    06:00 +13°C° 0.3 mm 4 mps 749 mmHg 77%
    07:00 +13°C° 0.3 mm 4 mps 749 mmHg 78%
    08:00 +13°C° 0.5 mm 4 mps 749 mmHg 78%
    09:00 +12°C° 0.5 mm 4 mps 750 mmHg 79%
    10:00 +12°C° 0.5 mm 4 mps 750 mmHg 79%
    11:00 +12°C° 0.7 mm 5 mps 750 mmHg 80%
    12:00 +12°C° 0.7 mm 5 mps 751 mmHg 80%
    13:00 +11°C° 0.7 mm 6 mps 751 mmHg 80%
    14:00 +10°C° 0.6 mm 5 mps 751 mmHg 80%
    15:00 +10°C° 0.6 mm 5 mps 751 mmHg 79%
    16:00 +10°C° 0.6 mm 5 mps 752 mmHg 78%
    17:00 +11°C° 0.2 mm 4 mps 752 mmHg 78%
    18:00 +11°C° 0.2 mm 4 mps 753 mmHg 77%
    19:00 +10°C° 0.2 mm 3 mps 753 mmHg 77%
    20:00 +10°C° 0 mm 3 mps 754 mmHg 78%
    21:00 +10°C° 0 mm 3 mps 754 mmHg 78%
    22:00 +9°C° 0 mm 3 mps 754 mmHg 79%
    23:00 +9°C° 0 mm 3 mps 755 mmHg 79%
    Show more